Home > Weather > Thousand Oaks > Past weeks

Flag for USA Past Weather in Thousand Oaks, California, USA — Yesterday and Last 2 Weeks

Now
70 °F

Sunny.


Feels Like: 71 °F
Forecast: 63 / 86 °F
Wind: 5 mph from North

Location: Camarillo Airport

Current Time: Jul 26, 2016 at 8:45:20 PM

Latest Report: Jul 26, 2016 at 7:55 PM


Visibility: 10 mi

Pressure: 29.87 "Hg

Humidity: 79%

Dew Point: 63 °F

Location of Thousand OaksLocation

Past Weather in Thousand Oaks — Graph

°F

Thousand Oaks Temperature Yesterday

Maximum temperature yesterday: 82 °F (at 1:55 PM)
Minimum temperature yesterday: 66 °F (at 11:55 PM)
Average temperature yesterday: 73 °F

High & Low Weather Summary for the Past Weeks

 TemperatureHumidityPressure
High88 °F (Jul 22, 12:55 PM)100% (Jul 24, 4:55 AM)30.06 "Hg (Jul 24, 4:55 AM)
Low58 °F (Jul 13, 4:55 AM)34% (Jul 23, 2:55 PM)29.80 "Hg (Jul 23, 4:55 PM)
Average70 °F73%29.95 "Hg
* Reported Jul 11 6:55 PM — Jul 26 6:55 PM, Thousand Oaks, Weather by CustomWeather, © 2016

Note: Actual official high and low records may vary slightly from our data, if they occured in-between our weather recording intervals... More about our weather records

Advertising

Thousand Oaks Weather History for the Previous 24 Hours

Scroll right to see more
 ConditionsComfort  
Time TempWeatherWind HumidityBarometerVisibility
6:55 PM
Tue, Jul 26
72 °FSunny.6 mph73%29.87 "Hg10 mi
5:55 PM76 °FSunny.8 mph64%29.86 "Hg10 mi
4:55 PM79 °FSunny.9 mph56%29.86 "Hg10 mi
3:55 PM82 °FSunny.9 mph43%29.87 "Hg10 mi
2:55 PM81 °FSunny.9 mph47%29.89 "Hg10 mi
1:55 PM80 °FSunny.9 mph56%29.90 "Hg10 mi
12:55 PM80 °FSunny.13 mph54%29.91 "Hg10 mi
11:55 AM80 °FSunny.10 mph56%29.91 "Hg10 mi
10:55 AM79 °FSunny.7 mph60%29.91 "Hg10 mi
9:55 AM77 °FSunny.3 mph62%29.91 "Hg9 mi
8:55 AM71 °FSunny.3 mph78%29.93 "Hg7 mi
8:02 AM67 °FFog.No wind90%29.90 "Hg5 mi
7:55 AM66 °FFog.No wind93%29.93 "Hg5 mi
6:55 AM66 °FFog.3 mph93%29.92 "Hg3 mi
5:55 AM65 °FFog.No wind94%29.93 "Hg4 mi
4:55 AM65 °FFog.No wind97%29.92 "Hg4 mi
3:55 AM65 °FFog.No wind97%29.92 "Hg3 mi
2:55 AM65 °FFog.No wind97%29.92 "Hg4 mi
1:55 AM65 °FPassing clouds.No wind91%29.92 "Hg8 mi
12:55 AM66 °FClear.3 mph90%29.92 "Hg8 mi
11:55 PM
Mon, Jul 25
66 °FClear.3 mph90%29.92 "Hg9 mi
10:55 PM67 °FClear.5 mph87%29.92 "Hg9 mi
9:55 PM67 °FPassing clouds.3 mph90%29.93 "Hg9 mi
8:55 PM68 °FLow clouds.No wind87%29.93 "Hg9 mi
Weather by CustomWeather, © 2016

See weather overviewHow to use our weather pages